Weather History for Atka, AK

Change the Weather History Date:

Thursday, November 22, 2012

  Actual Average (PADK) Record (PADK)
Temperature  
Mean Temperature 30 °F -  
Max Temperature 35 °F 40 °F 55 °F (1970)
Min Temperature 24 °F 31 °F 16 °F (1972)
Degree Days  
Heating Degree Days 36    
Moisture  
Dew Point -16 °F    
Average Humidity 12    
Maximum Humidity 13    
Minimum Humidity 11    
Precipitation  
Precipitation 0.00 in - - ()
Sea Level Pressure  
Sea Level Pressure 30.11 in    
Wind  
Wind Speed 7 mph (East)    
Max Wind Speed 18 mph    
Max Gust Speed 23 mph    
Visibility 10 miles    
Events      
Averages and records for this station are not official NWS values.
T = Trace of Precipitation, MM = Missing Value Source: NWS Daily Summary

Daily Weather History Graph

Daily Weather History Graph

Search for Another Location

Airport:

Trip Planner

Search our weather history database for the weather conditions in past years. The results will help you decide how hot, cold, wet, or windy it might be!

Date:

Astronomy

Nov. 22, 2012 Rise Set
Actual Time 9:10 AM HAST 5:35 PM HAST
Civil Twilight 8:32 AM HAST 6:13 PM HAST
Nautical Twilight 7:49 AM HAST 6:56 PM HAST
Astronomical Twilight 7:09 AM HAST 7:36 PM HAST
Moon 3:00 PM HAST (11/22) 3:07 AM HAST (11/22)
Length of Visible Light 9h 41m
Length of Day
8h 24m
Waxing Gibbous, 73% of the Moon is Illuminated
Nov 22
Waxing Gibbous
Nov 28
Full
Dec 6
Last Quarter
Dec 12
New
Dec 19
First Quarter

Hourly Weather History & Observations

Time (HAST) Temp. Windchill Dew Point Humidity Pressure Visibility Wind Dir Wind Speed Gust Speed Precip Events Conditions
12:16 AM 24.8 °F - -22.0 °F 12% 30.26 in 10.0 mi Calm Calm - N/A   Overcast
12:36 AM 24.8 °F - -20.2 °F 13% 30.26 in 10.0 mi Calm Calm - N/A   Overcast
12:56 AM 24.8 °F - -20.2 °F 13% 30.27 in 10.0 mi Calm Calm - N/A   Mostly Cloudy
1:16 AM 24.8 °F 20.5 °F -20.2 °F 13% 30.26 in 10.0 mi NW 3.5 mph - N/A   Mostly Cloudy
1:36 AM 26.6 °F 22.6 °F -20.2 °F 12% 30.26 in 10.0 mi NW 3.5 mph - N/A   Overcast
1:56 AM 26.6 °F - -20.2 °F 12% 30.26 in 10.0 mi Calm Calm - N/A   Scattered Clouds
2:16 AM 24.8 °F - -20.2 °F 13% 30.26 in 10.0 mi Calm Calm - N/A   Mostly Cloudy
2:36 AM 26.6 °F 20.0 °F -20.2 °F 12% 30.25 in 10.0 mi NNW 5.8 mph - N/A   Overcast
2:56 AM 26.6 °F 22.6 °F -18.4 °F 13% 30.25 in 10.0 mi NNW 3.5 mph - N/A   Overcast
3:16 AM 28.4 °F - -18.4 °F 12% 30.25 in 10.0 mi Calm Calm - N/A   Overcast
3:36 AM 28.4 °F 23.3 °F -18.4 °F 12% 30.24 in 10.0 mi NNW 4.6 mph - N/A   Overcast
3:56 AM 30.2 °F 26.7 °F -16.6 °F 13% 30.24 in 10.0 mi NNW 3.5 mph - N/A   Overcast
4:16 AM 30.2 °F - -16.6 °F 13% 30.24 in 10.0 mi Calm Calm - N/A   Overcast
4:36 AM 30.2 °F - -16.6 °F 13% 30.23 in 10.0 mi Calm Calm - N/A   Overcast
4:56 AM 30.2 °F 26.7 °F -16.6 °F 13% 30.22 in 10.0 mi North 3.5 mph - N/A   Overcast
5:16 AM 30.2 °F - -16.6 °F 13% 30.22 in 10.0 mi Calm Calm - N/A   Overcast
5:36 AM 30.2 °F 24.3 °F -16.6 °F 13% 30.21 in 10.0 mi WNW 5.8 mph - N/A   Overcast
5:56 AM 30.2 °F 23.4 °F -16.6 °F 13% 30.20 in 10.0 mi NNW 6.9 mph - N/A   Overcast
6:16 AM 30.2 °F 26.7 °F -16.6 °F 13% 30.20 in 10.0 mi NNW 3.5 mph - N/A   Overcast
6:36 AM 30.2 °F 24.3 °F -16.6 °F 13% 30.20 in 10.0 mi NNE 5.8 mph - N/A   Overcast
6:56 AM 30.2 °F - -16.6 °F 13% 30.19 in 10.0 mi Calm Calm - N/A   Overcast
7:16 AM 30.2 °F - -16.6 °F 13% 30.19 in 10.0 mi Calm Calm - N/A   Overcast
7:36 AM 30.2 °F - -16.6 °F 13% 30.18 in 10.0 mi Calm Calm - N/A   Overcast
7:56 AM 28.4 °F 19.1 °F -18.4 °F 12% 30.17 in 10.0 mi East 10.4 mph - N/A   Overcast
8:16 AM 33.8 °F 25.3 °F -16.6 °F 11% 30.16 in 10.0 mi East 11.5 mph - N/A   Overcast
8:36 AM 33.8 °F 24.3 °F -14.8 °F 12% 30.16 in 10.0 mi East 13.8 mph - N/A   Overcast
8:56 AM 33.8 °F 24.3 °F -14.8 °F 12% 30.16 in 10.0 mi East 13.8 mph - N/A   Overcast
9:16 AM 33.8 °F 25.3 °F -14.8 °F 12% 30.16 in 10.0 mi East 11.5 mph - N/A   Overcast
9:36 AM 33.8 °F 24.3 °F -14.8 °F 12% 30.16 in 10.0 mi East 13.8 mph - N/A   Mostly Cloudy
9:56 AM 33.8 °F 24.3 °F -14.8 °F 12% 30.16 in 10.0 mi East 13.8 mph 18.4 mph N/A   Mostly Cloudy
10:16 AM 33.8 °F 29.6 °F -14.8 °F 12% 30.17 in 10.0 mi NNE 4.6 mph - N/A   Overcast
10:36 AM 33.8 °F 25.3 °F -14.8 °F 12% 30.16 in 10.0 mi East 11.5 mph - N/A   Overcast
10:56 AM 33.8 °F 25.3 °F -14.8 °F 12% 30.15 in 10.0 mi East 11.5 mph - N/A   Overcast
11:16 AM 35.6 °F 26.6 °F -14.8 °F 11% 30.15 in 10.0 mi East 13.8 mph - N/A   Overcast
11:36 AM 35.6 °F 26.6 °F -14.8 °F 11% 30.15 in 10.0 mi SE 13.8 mph - N/A   Overcast
11:56 AM 35.6 °F 27.1 °F - N/A% 30.15 in 10.0 mi East 12.7 mph - N/A   Overcast
12:16 PM 35.6 °F 27.5 °F - N/A% 30.14 in 10.0 mi East 11.5 mph - N/A   Overcast
12:36 PM 35.6 °F 28.6 °F - N/A% 30.13 in 10.0 mi East 9.2 mph - N/A   Overcast
12:56 PM 35.6 °F 28.6 °F -14.8 °F 11% 30.12 in 10.0 mi East 9.2 mph - N/A   Overcast
1:16 PM 35.6 °F 28.0 °F - N/A% 30.11 in 10.0 mi ESE 10.4 mph - N/A   Overcast
1:36 PM 35.6 °F 27.5 °F -14.8 °F 11% 30.10 in 10.0 mi ESE 11.5 mph - N/A   Overcast
1:56 PM 35.6 °F 28.6 °F - N/A% 30.09 in 10.0 mi East 9.2 mph 17.3 mph N/A   Overcast
2:16 PM 35.6 °F 27.1 °F - N/A% 30.08 in 10.0 mi ESE 12.7 mph - N/A   Overcast
2:36 PM 35.6 °F 27.1 °F - N/A% 30.08 in 10.0 mi East 12.7 mph 18.4 mph N/A   Overcast
2:56 PM 35.6 °F 27.5 °F - N/A% 30.07 in 10.0 mi East 11.5 mph - N/A   Overcast
3:16 PM 35.6 °F 28.6 °F - N/A% 30.06 in 10.0 mi ESE 9.2 mph - N/A   Overcast
3:36 PM 35.6 °F 27.5 °F -14.8 °F 11% 30.05 in 10.0 mi SE 11.5 mph - N/A   Overcast
3:56 PM 35.6 °F 28.0 °F - N/A% 30.04 in 10.0 mi ESE 10.4 mph - N/A   Overcast
4:16 PM 35.6 °F 26.6 °F -14.8 °F 11% 30.03 in 10.0 mi SE 13.8 mph 18.4 mph N/A   Overcast
4:36 PM 35.6 °F 26.2 °F - N/A% 30.02 in 10.0 mi ESE 15.0 mph 23.0 mph N/A   Overcast
4:56 PM 35.6 °F 27.1 °F -14.8 °F 11% 30.03 in 10.0 mi ESE 12.7 mph - N/A   Overcast
5:16 PM 33.8 °F 23.9 °F -14.8 °F 12% 30.03 in 10.0 mi SSE 15.0 mph - N/A   Overcast
5:36 PM 33.8 °F 24.8 °F -14.8 °F 12% 30.02 in 10.0 mi SE 12.7 mph - N/A   Overcast
5:56 PM 33.8 °F 23.9 °F -14.8 °F 12% 30.01 in 10.0 mi SE 15.0 mph - N/A   Overcast
6:16 PM 33.8 °F 23.9 °F -14.8 °F 12% 30.01 in 10.0 mi SE 15.0 mph 19.6 mph N/A   Overcast
6:36 PM 33.8 °F 24.3 °F -14.8 °F 12% 30.01 in 10.0 mi SE 13.8 mph - N/A   Overcast
6:56 PM 33.8 °F 23.9 °F -14.8 °F 12% 30.00 in 10.0 mi SE 15.0 mph - N/A   Overcast
7:16 PM 33.8 °F 24.3 °F -14.8 °F 12% 29.99 in 10.0 mi ESE 13.8 mph - N/A   Overcast
7:36 PM 33.8 °F 23.5 °F -14.8 °F 12% 29.98 in 10.0 mi ESE 16.1 mph - N/A   Overcast
7:56 PM 33.8 °F 23.5 °F -14.8 °F 12% 29.97 in 10.0 mi ESE 16.1 mph - N/A   Overcast
8:16 PM 33.8 °F 23.2 °F -14.8 °F 12% 29.97 in 10.0 mi East 17.3 mph - N/A   Overcast
8:36 PM 33.8 °F 23.5 °F -14.8 °F 12% 29.96 in 10.0 mi East 16.1 mph - N/A   Overcast
8:56 PM 33.8 °F 22.8 °F -14.8 °F 12% 29.95 in 10.0 mi East 18.4 mph - N/A   Overcast
9:16 PM 33.8 °F 22.8 °F -14.8 °F 12% 29.95 in 10.0 mi East 18.4 mph - N/A   Overcast
9:36 PM 33.8 °F 23.2 °F -14.8 °F 12% 29.94 in 10.0 mi East 17.3 mph - N/A   Overcast
9:56 PM 33.8 °F 23.2 °F -14.8 °F 12% 29.93 in 10.0 mi East 17.3 mph - N/A   Overcast
10:16 PM 35.6 °F 25.9 °F -14.8 °F 11% 29.93 in 10.0 mi ESE 16.1 mph - N/A   Overcast
10:36 PM 35.6 °F 25.5 °F -14.8 °F 11% 29.93 in 10.0 mi East 17.3 mph 21.9 mph N/A   Overcast
10:56 PM 35.6 °F 25.2 °F -14.8 °F 11% 29.92 in 10.0 mi East 18.4 mph - N/A   Overcast
11:16 PM 35.6 °F 25.5 °F -14.8 °F 11% 29.92 in 10.0 mi East 17.3 mph - N/A   Overcast
11:36 PM 35.6 °F 25.5 °F -14.8 °F 11% 29.91 in 10.0 mi ESE 17.3 mph - N/A   Overcast
11:56 PM 35.6 °F 25.5 °F -13.0 °F 12% 29.90 in 10.0 mi East 17.3 mph - N/A   Overcast